Location: Petruro
(41.0333°N, 14.7833°E)
Time: 08:35:59
(UTC+00:00)

Cosmos 2228 Rocket - Pass Details

Date: 20 June 2021
Orbit: 616 x 653 km, 82.5° (Epoch: 01 August)

Event Time Altitude Azimuth Distance (km) Brightness Sun altitude
Rises 02:44:19 0° 354° (N) 2,954 7.1 -7.5°
Reaches altitude 10° 02:46:35 10° 357° (N) 2,035 6.3 -7.2°
Maximum altitude 02:51:06 70° 82° (E) 674 3.5 -6.6°
Drops below altitude 10° 02:55:30 10° 166° (SSE) 1,996 5.4 -5.9°
Sets 02:57:43 0° 168° (SSE) 2,893 6.2 -5.6°
